User: anonymous   Login
Location: Lecco
(45.8566°N, 9.3977°E)
Time: 11:31:58
(UTC+02:00)
Language:

Explorer 7 - Orbit

View from above orbital plane
View from above orbital plane
View from above satellite
View from above satellite

Ground track
Ground track

The orbit data is extracted from the following two-line orbital elements,

1    22U 59009A   20226.91288707 -.00000055 +00000-0 +19410-4 0  9991
2    22 050.2826 192.4532 0139346 118.2850 243.2239 14.95173701478974
Epoch (UTC): 13 August 2020 21:54:33
Eccentricity: 0.0139346
inclination: 50.2826°
perigee height: 485 km
apogee height: 679 km
right ascension of ascending node: 192.4532°
argument of perigee: 118.2850°
revolutions per day: 14.95173701
mean anomaly at epoch: 243.2239°
orbit number at epoch: 47897

The dashed part of the orbit path shows where the satellite is in the earth's shadow,  

DLR